TimeEDT,TemperatureF,Dew PointF,Humidity,Sea Level PressureIn,VisibilityMPH,Wind Direction,Wind SpeedMPH,Gust SpeedMPH,PrecipitationIn,Events,Conditions,WindDirDegrees,DateUTC
12:53 AM,52.0,35.1,53,29.95,10.0,Calm,Calm,-,N/A,,Mostly Cloudy,0,2013-03-31 04:53:00
1:53 AM,48.0,39.9,74,29.94,7.0,SSW,5.8,-,0.01,Rain,Light Rain,200,2013-03-31 05:53:00
2:48 AM,46.4,44.6,93,29.91,7.0,SSE,3.5,-,0.04,Rain,Light Rain,160,2013-03-31 06:48:00
2:53 AM,46.9,44.1,90,29.90,8.0,SSE,3.5,-,0.04,Rain,Light Rain,160,2013-03-31 06:53:00
3:13 AM,46.4,44.6,93,29.90,6.0,SSE,4.6,-,0.01,Rain,Light Rain,150,2013-03-31 07:13:00
3:34 AM,46.4,44.6,93,29.89,5.0,Calm,Calm,-,0.03,Rain,Light Rain,0,2013-03-31 07:34:00
3:53 AM,46.9,45.0,93,29.88,4.0,Calm,Calm,-,0.05,Rain,Rain,0,2013-03-31 07:53:00
3:59 AM,46.4,44.6,93,29.88,4.0,Calm,Calm,-,0.01,Rain,Light Rain,0,2013-03-31 07:59:00
4:25 AM,46.4,46.4,100,29.87,4.0,Calm,Calm,-,0.02,Rain,Light Rain,0,2013-03-31 08:25:00
4:34 AM,46.4,46.4,100,29.86,2.5,Calm,Calm,-,0.03,Rain,Light Rain,0,2013-03-31 08:34:00
4:43 AM,46.4,46.4,100,29.86,4.0,Calm,Calm,-,0.03,,Overcast,0,2013-03-31 08:43:00
4:53 AM,46.9,46.0,97,29.85,5.0,SSE,3.5,-,0.03,,Overcast,160,2013-03-31 08:53:00
5:53 AM,46.9,46.0,97,29.83,4.0,Calm,Calm,-,0.01,,Overcast,0,2013-03-31 09:53:00
5:55 AM,46.4,46.4,100,29.83,1.2,South,4.6,-,N/A,,Overcast,190,2013-03-31 09:55:00
6:05 AM,46.4,46.4,100,29.83,2.0,Variable,3.5,-,0.00,Rain,Light Rain,0,2013-03-31 10:05:00
6:07 AM,46.4,46.4,100,29.83,3.0,Variable,3.5,-,0.00,Rain,Light Rain,0,2013-03-31 10:07:00
6:17 AM,46.4,46.4,100,29.83,1.8,Variable,3.5,-,0.00,Rain,Light Rain,0,2013-03-31 10:17:00
6:24 AM,46.4,46.4,100,29.82,0.8,SSW,3.5,-,0.01,Rain,Light Rain,200,2013-03-31 10:24:00
6:53 AM,46.9,46.9,100,29.81,0.2,Variable,3.5,-,0.01,Fog-Rain,Light Rain,0,2013-03-31 10:53:00
7:15 AM,48.2,46.4,93,29.82,1.0,SSW,3.5,-,0.00,,Mist,210,2013-03-31 11:15:00
7:23 AM,48.2,46.4,93,29.82,0.5,SSW,3.5,-,0.00,Fog,Fog,210,2013-03-31 11:23:00
7:53 AM,48.0,46.9,96,29.82,0.2,Calm,Calm,-,0.01,Fog,Fog,0,2013-03-31 11:53:00
8:53 AM,48.9,48.0,97,29.83,0.2,Variable,3.5,-,0.01,Fog-Rain,Light Rain,0,2013-03-31 12:53:00
9:28 AM,48.2,48.2,100,29.84,1.8,Calm,Calm,-,0.00,Rain,Light Rain,0,2013-03-31 13:28:00
9:31 AM,48.2,48.2,100,29.84,0.8,SW,4.6,-,0.00,Rain,Light Rain,230,2013-03-31 13:31:00
9:43 AM,50.0,48.2,94,29.84,1.8,SW,5.8,-,0.00,,Overcast,230,2013-03-31 13:43:00
9:49 AM,50.0,48.2,94,29.84,3.0,WSW,4.6,-,0.00,,Overcast,240,2013-03-31 13:49:00
9:50 AM,50.0,48.9,96,29.83,3.0,Variable,4.6,-,0.00,,Overcast,0,2013-03-31 13:50:00
10:27 AM,50.0,48.2,94,29.84,10.0,WSW,8.1,19.6,N/A,,Overcast,240,2013-03-31 14:27:00
10:53 AM,51.1,48.9,92,29.82,10.0,SW,8.1,-,N/A,,Overcast,230,2013-03-31 14:53:00
11:53 AM,51.1,46.9,86,29.85,10.0,Variable,6.9,18.4,0.00,,Overcast,0,2013-03-31 15:53:00
12:53 PM,51.1,48.0,89,29.86,10.0,WSW,11.5,20.7,0.00,Rain,Light Rain,240,2013-03-31 16:53:00
1:10 PM,51.8,46.4,82,29.86,10.0,Variable,6.9,18.4,N/A,,Overcast,0,2013-03-31 17:10:00
1:53 PM,50.0,45.0,83,29.87,10.0,WSW,8.1,17.3,N/A,,Overcast,240,2013-03-31 17:53:00
2:19 PM,50.0,46.4,87,29.88,9.0,West,9.2,17.3,0.00,Rain,Light Rain,270,2013-03-31 18:19:00
2:53 PM,50.0,46.0,86,29.88,9.0,West,11.5,17.3,0.00,,Overcast,260,2013-03-31 18:53:00
3:32 PM,50.0,44.6,82,29.88,10.0,WSW,5.8,-,0.00,,Overcast,240,2013-03-31 19:32:00
3:53 PM,52.0,45.0,77,29.86,10.0,WNW,11.5,16.1,0.00,,Overcast,290,2013-03-31 19:53:00
4:53 PM,53.1,45.0,74,29.84,10.0,Variable,3.5,-,N/A,,Overcast,0,2013-03-31 20:53:00
5:29 PM,53.6,46.4,77,29.83,10.0,SW,3.5,-,N/A,,Scattered Clouds,220,2013-03-31 21:29:00
5:53 PM,55.0,46.0,72,29.83,10.0,Variable,3.5,-,N/A,,Mostly Cloudy,0,2013-03-31 21:53:00
6:48 PM,53.6,44.6,72,29.85,10.0,SW,4.6,-,N/A,,Mostly Cloudy,230,2013-03-31 22:48:00
6:53 PM,53.1,45.0,74,29.85,10.0,Variable,3.5,-,N/A,,Mostly Cloudy,0,2013-03-31 22:53:00
7:53 PM,52.0,44.1,74,29.85,10.0,Variable,4.6,-,N/A,,Partly Cloudy,0,2013-03-31 23:53:00
8:53 PM,50.0,43.0,77,29.86,10.0,Variable,3.5,-,N/A,,Mostly Cloudy,0,2013-04-01 00:53:00
9:53 PM,48.9,42.1,77,29.87,10.0,Variable,3.5,-,N/A,,Partly Cloudy,0,2013-04-01 01:53:00
10:53 PM,48.0,42.1,80,29.87,10.0,SW,4.6,-,N/A,,Clear,230,2013-04-01 02:53:00
11:53 PM,46.9,42.1,83,29.88,10.0,Calm,Calm,-,N/A,,Clear,0,2013-04-01 03:53:00